Location: Rodanthe
(35.5920°N, 75.4670°W)
Time: 21:42:13
(UTC-05:00)

ISS - All Passes

Search period start: 09 February 2016 00:00
Search period end: 19 February 2016 00:00
Orbit: 398 x 408 km, 51.6° (Epoch: 09 February)

Date Brightness Start Highest point End Pass type
(mag) Time Alt. Az. Time Alt. Az. Time Alt. Az.
09 Feb - 14:42:47 10° S 14:45:27 24° SE 14:48:07 10° ENE daylight
09 Feb - 16:18:58 10° W 16:21:48 27° NW 16:24:40 10° NNE daylight
09 Feb - 21:13:24 10° N 21:14:55 13° NNE 21:16:25 10° NE night (unlit)
09 Feb - 22:48:32 10° NW 22:51:46 89° NNE 22:55:01 10° SE night (unlit)
10 Feb - 13:51:55 10° SSE 13:53:01 11° SE 13:54:08 10° ESE daylight
10 Feb - 15:25:55 10° WSW 15:29:06 53° NW 15:32:18 10° NE daylight
10 Feb - 21:56:01 10° NW 21:59:07 41° NE 22:02:12 10° ESE night (unlit)
10 Feb - 23:33:23 10° W 23:35:17 15° SW 23:37:11 10° SSW night (unlit)
11 Feb - 14:33:14 10° SW 14:36:27 68° SE 14:39:41 10° NE daylight
11 Feb - 16:11:17 10° WNW 16:13:12 15° NNW 16:15:07 10° N daylight
11 Feb - 21:03:41 10° NNW 21:06:20 23° NNE 21:08:59 10° E night (unlit)
11 Feb - 22:39:54 10° WNW 22:42:48 30° SW 22:45:41 10° SSE night (unlit)
12 Feb - 13:40:59 10° SSW 13:43:52 30° SE 13:46:46 10° ENE daylight
12 Feb - 15:17:38 10° W 15:20:19 23° NNW 15:23:00 10° NNE daylight
12 Feb - 20:11:35 10° N 20:13:27 14° NNE 20:15:19 10° ENE visible
12 Feb - 21:46:59 10° NW 21:50:12 71° SW 21:53:26 10° SE night (unlit)
13 Feb - 12:49:30 10° SSE 12:51:21 14° SE 12:53:12 10° E daylight
13 Feb - 14:24:23 10° WSW 14:27:30 43° NW 14:30:38 10° NE daylight
13 Feb - 20:54:20 10° NW 20:57:30 51° NE 21:00:40 10° ESE night (unlit)
13 Feb - 22:32:21 10° WSW 22:33:35 12° SW 22:34:48 10° SSW night (unlit)
14 Feb - 13:31:30 10° SW 13:34:45 87° SSE 13:38:01 10° NE daylight
14 Feb - 15:10:01 10° NW 15:11:35 13° NNW 15:13:11 10° N daylight
14 Feb - 20:01:51 10° NNW 20:04:41 27° NE 20:07:30 10° E visible
14 Feb - 21:38:21 10° WNW 21:41:03 24° SW 21:43:44 10° S night (unlit)
15 Feb - 12:39:02 10° SSW 12:42:05 38° SE 12:45:07 10° ENE daylight
15 Feb - 14:16:06 10° W 14:18:36 20° NNW 14:21:07 10° NNE daylight
15 Feb - 19:09:36 10° NNW 19:11:45 16° NNE 19:13:53 10° ENE visible
15 Feb - 20:45:14 10° WNW 20:48:24 54° SW 20:51:34 10° SSE visible
16 Feb - 11:47:10 10° S 11:49:27 18° SE 11:51:45 10° E daylight
16 Feb - 13:22:40 10° WSW 13:25:42 35° NW 13:28:43 10° NNE daylight
16 Feb - 18:17:51 10° N 18:18:41 11° NNE 18:19:32 10° NE visible
16 Feb - 19:52:26 10° NW 19:55:39 65° NE 19:58:51 10° SE visible
17 Feb - 12:29:36 10° SW 12:32:50 74° NW 12:36:06 10° NE daylight
17 Feb - 14:08:35 10° NW 14:09:46 11° NNW 14:10:56 10° N daylight
17 Feb - 18:59:50 10° NNW 19:02:47 32° NE 19:05:44 10° ESE visible
17 Feb - 20:36:38 10° W 20:39:04 20° SW 20:41:29 10° S visible
18 Feb - 11:36:55 10° SSW 11:40:04 48° SE 11:43:13 10° ENE daylight
18 Feb - 13:14:23 10° WNW 13:16:41 18° NNW 13:18:59 10° NNE daylight
18 Feb - 18:07:25 10° NNW 18:09:48 19° NNE 18:12:11 10° ENE visible
18 Feb - 19:43:17 10° WNW 19:46:22 42° SW 19:49:27 10° SSE visible
